Location: Branche des Alpilles
(43.6087°N, 4.6976°E)
Time: 04:35:16
(UTC+00:00)

X-37B - Pass Details

Date: 30 November 2020
Orbit: 383 x 391 km, 45.1° (Epoch: 22 January)

Event Time Altitude Azimuth Distance (km) Brightness Sun altitude
Rises 16:41:11 0° 232° (SW) 2,249 6.3 -6.5°
Reaches altitude 10° 16:43:19 10° 223° (SW) 1,400 4.7 -6.9°
Maximum altitude 16:46:16 38° 154° (SSE) 608 1.5 -7.4°
Drops below altitude 10° 16:49:15 10° 84° (E) 1,410 2.8 -7.9°
Enters shadow 16:49:18 10° 84° (E) 1,430 2.8 -7.9°
